FENGYUN 1C DEB, 29820

Orbit data source: Space-Track

FENGYUN 1C DEB, 29820 is space debris in SSO originally from a launch on Mon, 10 May 1999 UTC launched from the Taiyaun Space Center, China (TSC). Fengyun 1C debris stems from the Chinese weather satellite Fengyun-1C, which was intentionally destroyed by a Chinese anti-satellite missile in 2007. This event dramatically increased the amount of space debris, with thousands of trackable fragments posing hazards to satellites and human spaceflight. The Fengyun 1C debris cloud has become a focal point in discussions about space sustainability and the need for international regulations to prevent the creation of new debris.

Loading next visibility...
Identifier
29820, 1999-025DN
Orbit
SSO
Country
Flag of CNCN / PRC
Related business
Manufacturer
Unknown
Mission
Spacecraft
Bus & Motor
Unknown
Mass
Unknown
Launch date (UTC)
1999-05-10 (27 years ago)
Launch vehicle
Unknown
Launch site
Taiyaun Space Center, China (TSC)
Object type
Payload
Rocket body
Debris
Shape & HBR
Unknown shape, 0.2 m
Radar Cross Section
Medium (>0.1 m² and <1 m²)

Expand to show TLE details & history
Last TLE update: 8 hours ago

TLE from 8 hours ago
0 FENGYUN 1C DEB
1 29820U 99025DN  26257.27754755  .00000184  00000-0  14311-3 0  9996
2 29820  98.8350 261.1352 0071702 188.1056 184.5441 14.02983323  4198
Epoch: 2026-09-14T06:39Z
TLE epoch observation values (Epoch: 2026-09-14T06:39:40.108Z)
Latitude
12.3938°
Longitude
166.01073°
Altitude
937.529 km
Speed
7.358 km/s
True Right ascension
17h 16m 45s
True Declination
12° 19' 25"
Sunlit
Object was in daylight at epoch
Visualization orbit readout
Latitude
Unknown
Longitude
Unknown
Altitude
Unknown
Speed
Unknown
Apparent Right ascension
Unknown
Apparent Declination
Unknown
Sunlit
N/A
Visualization observer readout
Local Sidereal Time
07:38:27
Azimuth
Unknown
Elevation
Unknown
Doppler factor
Unknown
Orbital elements
Apogee altitude
932.717 km
Perigee altitude
828.623 km
Semi-major axis
7,258.807 km
Eccentricity
0.00717
Inclination
98.835°
RAAN
261.1352°
Arg. of periapsis
188.1056°
True anomaly
184.47958°
Mean anomaly
184.5441°
Eccentric anomaly
184.51178°
Mean motion
3.5095 °/min
Orbital period
102.58 mins
BSTAR
0.00014311
Loading maneuver chart data...
Computing Atmospheric mass density...

Documentation

Showing up to 5 results
|